Location: Cerro Alto Campground
(35.4250°N, 120.7383°W)
Time: 09:12:31
(UTC-07:00)

Daily predictions for brighter satellites

Satellite Brightness Start Highest point End
(mag) Time Altitude Azimuth Time Altitude Azimuth Time Altitude Azimuth
CZ-3 Stage 3 3.2 20:41:47 10° SW 20:44:29 42° SSE 20:52:55 10° E
Lacrosse 5 2.3 20:46:04 10° SW 20:51:06 70° NW 20:56:09 10° NE
Cosmos 2285 Rocket 4.3 20:45:42 10° S 20:51:43 48° ESE 20:57:44 10° NNE
ATLAS 3B R/B 4.4 20:49:17 10° N 20:53:31 17° NE 20:57:42 10° E
Cosmos 1655 Rocket 4.4 20:49:23 10° N 20:55:36 71° W 21:01:46 10° S
Cosmos 2266 Rocket 4.2 20:50:21 10° N 20:56:40 60° E 21:02:50 10° SSE
BREEZE-M DEB (TANK) 4.4 20:43:05 10° SW 21:00:48 87° NW 21:05:12 10° NE
Aureole 1 Rocket 2.4 20:58:33 10° SSW 21:01:38 85° WNW 21:05:19 10° NNE
Meteor 1-24 Rocket 4.4 20:56:39 10° SSE 21:02:14 41° E 21:07:50 10° NNE
Cosmos 1607 4.3 20:56:40 10° NW 21:02:59 67° WSW 21:09:07 10° SSE
H-2A R/B 3.5 20:59:45 10° ESE 21:03:49 23° ENE 21:07:58 10° NNE
Cosmos 1269 Rocket 4.1 21:00:06 10° S 21:05:16 57° ESE 21:10:28 10° NNE
Cosmos 2263 Rocket 4.4 21:04:17 10° WSW 21:09:13 30° WNW 21:14:10 10° N
Resurs 1-3 3.8 21:09:10 10° S 21:13:32 77° WSW 21:17:56 10° NNW
Cosmos 1812 Rocket 4.2 21:12:19 10° NNW 21:16:36 57° W 21:20:53 10° S
Thor Agena Rocket 4.3 21:14:18 10° N 21:19:16 55° WNW 21:24:10 10° SSW
SEDSat Delta rocket 4.3 21:15:32 10° SW 21:20:13 28° SSE 21:23:43 13° ESE
Iridium 4 Rocket 3.6 21:16:29 10° S 21:22:09 75° E 21:27:24 10° N
ATLAS 2AS CENTAUR R/B 3.1 21:14:39 10° SSW 21:22:21 86° ESE 21:30:30 10° NNE
Cosmos 1953 Rocket 3.5 21:18:08 10° S 21:22:26 67° E 21:26:48 10° NNE
Aurora 2 Rocket 4.3 21:17:32 10° SW 21:22:36 32° SSE 21:28:29 13° ESE
In-Cosmos 22 4.2 21:17:55 10° S 21:23:25 75° E 21:29:05 10° NNE
Cosmos 1437 3.6 21:20:35 10° NNE 21:23:29 33° ENE 21:25:11 19° SE
Meteor 2-5 Rocket 4.0 21:18:31 10° S 21:24:28 81° W 21:30:24 10° N
Cosmos 1758 Rocket 3.6 21:23:06 10° S 21:27:33 84° W 21:31:59 10° N
Cosmos 1674 3.4 21:25:09 16° SSE 21:27:42 33° E 21:31:11 10° NNE
BREEZE-M R/B 3.9 21:26:35 10° WNW 21:29:03 21° SW 21:30:38 13° S
ERS-1 Rocket 4.1 21:26:44 15° ESE 21:29:52 27° ENE 21:34:05 10° NNE
USA 186 4.5 21:31:38 10° SW 21:33:49 17° W 21:35:55 10° NW
ERS-2 3.0 21:35:31 10° S 21:39:03 47° W 21:42:37 10° NNW
Cosmos 2251 Rocket 4.3 21:37:15 17° SSE 21:40:34 32° E 21:45:16 10° NE
Cosmos 1726 3.5 21:37:45 10° NNE 21:40:47 23° ENE 21:41:48 20° ESE
Resurs 01 Rocket 2.9 21:37:50 10° SSW 21:41:55 37° W 21:46:03 10° NNW
Terra 4.0 21:41:57 10° ENE 21:43:10 11° ENE 21:44:23 10° NE
Cosmos 921 Rocket 3.3 21:43:41 10° N 21:48:05 53° ENE 21:50:23 26° SE
Iridium 81 4.4 21:49:33 35° E 21:49:33 35° E 21:51:59 10° NNE
OAO 3 Rocket 3.2 21:44:56 10° W 21:49:55 83° S 21:53:18 20° E
USA 215 3.3 21:46:11 20° SE 21:51:01 83° SW 21:57:37 10° NW
Cosmos 1461 3.4 21:52:06 14° S 21:55:44 45° ESE 22:00:15 10° NE
NOSS 3-4 (A) 3.6 21:54:13 10° S 22:00:05 48° ESE 22:06:05 10° NE
NOSS 3-4 (C) 3.6 21:54:20 10° S 22:00:10 48° ESE 22:06:09 10° NE
ARGOS 3.2 21:59:18 19° S 22:03:13 79° WSW 22:08:41 10° NNW
Cosmos 2278 Rocket 2.4 22:00:36 20° S 22:04:12 48° ESE 22:09:39 10° NNE
Cosmos 1417 Rocket 4.5 22:00:38 12° S 22:06:33 84° E 22:12:53 10° N
MetOp-A 4.3 22:05:29 21° S 22:09:07 73° WSW 22:14:30 10° NNW
Cosmos 220 Rocket 3.8 22:07:44 21° SSW 22:10:29 81° ESE 22:14:42 10° NNE
APEX 4.2 22:11:36 10° N 22:14:36 30° ENE 22:14:55 29° ENE
Meteor 1-21 Rocket 4.4 22:12:22 27° SSE 22:15:30 60° E 22:21:12 10° NNE
KORONAS-FOTON 4.1 22:15:30 25° SSW 22:17:37 66° W 22:21:31 10° N
SL-08 RB Rocket 4.0 22:17:30 28° S 22:19:54 64° W 22:24:33 10° NNW
SL-14 R/B 3.5 22:20:17 48° E 22:20:25 48° E 22:24:13 10° NNE
Cosmos 1844 Rocket 4.3 22:15:35 10° SW 22:20:45 36° WNW 22:25:56 10° N
Cosmos 1745 Rocket 4.0 22:19:41 10° N 22:25:59 69° E 22:28:39 36° SSE
COSMOS 2406 3.2 22:20:27 10° NNW 22:26:14 86° ENE 22:28:30 39° SSE
SPOT 5 3.1 22:24:54 41° SE 22:26:33 64° ENE 22:31:46 10° N
Cosmos 1346 Rocket 4.3 22:24:25 10° NNW 22:28:02 33° W 22:30:08 20° SW
Cosmos 2084 4.3 22:25:00 10° NW 22:28:27 33° WSW 22:29:15 29° SW
NOSS 2-2 (D) 4.0 22:29:53 37° ENE 22:29:53 37° ENE 22:32:45 10° NE
SL-08 R/B 4.4 22:22:50 10° N 22:29:02 87° W 22:32:12 31° S
Cosmos 1110 Rocket 4.3 22:26:51 10° NNW 22:31:56 60° WSW 22:34:03 34° SSW
ATLAS 5 CENTAUR R/B 1.5 22:37:13 61° SSE 22:37:45 67° ESE 22:42:26 10° NE
Cosmos 1626 3.3 22:40:51 31° NE 22:40:51 31° NE 22:43:17 10° NNE
Helios 1A 2.8 22:41:42 71° SSE 22:42:09 89° E 22:46:22 10° NNW
SPOT 1/Viking Rocket 3.4 22:41:25 50° SSE 22:42:49 89° ENE 22:47:59 10° NNW
H-2A R/B 3.1 22:40:01 22° SSW 22:42:55 39° W 22:47:57 10° NNW
ATLAS 3B R/B 2.5 22:38:29 10° NNW 22:45:07 87° ENE 22:47:22 45° SSE
Helios 1B rocket 2.2 22:42:08 10° NNE 22:46:15 83° ESE 22:46:22 81° SE
Cosmos 2297 4.1 22:48:47 41° E 22:48:47 41° E 22:53:57 10° NE
USA 238 DEB 3.9 22:42:37 10° NW 22:49:43 67° WSW 22:52:33 39° S
USA 238 3.9 22:42:43 10° NW 22:49:50 67° WSW 22:52:38 39° S
Cosmos 1340 3.5 22:48:18 10° NNW 22:51:55 43° W 22:52:11 42° WSW
Cosmos 1842 Rocket 3.9 22:48:36 10° NNW 22:52:52 58° W 22:53:33 51° SW
NOSS 2-2 (C) 3.3 22:55:16 73° N 22:55:16 73° N 22:59:03 10° NNE
Cosmos 2082 Rocket 3.3 22:50:30 10° N 22:55:32 31° ENE 22:56:41 29° E
Cosmos 1833 Rocket 3.5 22:50:53 10° N 22:56:00 35° ENE 22:57:01 33° E
ATLAS 3B CENTAUR R/B 3.6 22:41:34 10° WSW 22:58:51 49° S 23:01:27 40° SE
Cosmos 1709 Rocket 4.0 22:53:06 10° N 22:59:13 61° E 23:00:24 52° SE
Landsat 7 3.8 23:00:13 63° SSW 23:00:49 72° WSW 23:05:35 10° NNW
NOSS 3-2 (A) 4.0 22:53:38 10° NNW 23:01:26 87° WSW 23:04:29 44° SSE
Spot 1 4.1 23:02:42 73° ENE 23:02:42 73° ENE 23:07:09 10° N
CZ-2C R/B 2.8 22:57:30 10° NNE 23:02:37 50° E 23:02:37 50° E
ERS-1 Rocket 4.4 23:06:45 23° SW 23:08:30 29° W 23:12:53 10° NW
Cosmos 1455 4.2 23:07:16 10° NNE 23:09:00 20° NE 23:09:00 20° NE
Cosmos 1300 3.6 23:08:13 10° NNW 23:11:27 45° WNW 23:11:27 45° WNW
Cosmos 1302 Rocket 4.4 23:08:12 10° NNW 23:13:19 51° WSW 23:14:04 47° SW
Aureole 3 Rocket 4.2 23:11:17 46° S 23:13:47 82° E 23:19:43 10° N
Cosmos 1726 4.5 23:13:22 10° NW 23:15:50 17° W 23:16:22 16° W
RESURS DK-1 3.3 23:17:46 43° NNE 23:17:46 43° NNE 23:20:36 10° NNE
Terra 1.8 23:20:16 70° W 23:20:16 70° W 23:25:01 10° NNW
Okean 3 Rocket 3.8 23:21:35 66° NNW 23:21:35 66° NNW 23:25:30 10° N
Cosmos 2221 3.1 23:18:00 10° NNW 23:21:54 51° WNW 23:21:54 51° WNW
NOSS 3-2 (C) 4.0 23:19:36 10° NNW 23:27:24 82° WSW 23:29:39 53° SSE
Cosmos 1992 Rocket 4.0 23:23:56 10° NNW 23:28:59 70° NE 23:28:59 70° NE
EO 1 Delta rocket 4.1 23:24:56 10° N 23:31:12 81° E 23:31:21 80° SE
Cosmos 2315 Rocket 4.3 23:31:49 44° SW 23:33:38 61° W 23:39:55 10° N
COBE Rocket 4.1 23:30:31 10° NNE 23:35:05 66° NE 23:35:05 66° NE
CZ-2C R/B 3.6 23:41:41 54° WSW 23:42:14 56° W 23:47:55 10° NNW
Meteor 1-11 4.3 23:45:27 65° WSW 23:45:57 69° W 23:51:44 10° N
ADEOS Rocket 3.9 23:40:28 10° NNE 23:45:35 37° E 23:45:35 37° E
Cosmos 2278 Rocket 4.4 23:44:13 10° WSW 23:48:31 22° WNW 23:52:50 10° N
Spot 4 4.2 23:51:21 64° N 23:51:21 64° N 23:55:28 10° NNW
Cosmos 2184 Rocket 4.0 23:46:52 10° N 23:53:09 66° E 23:53:16 66° E
